User: anonymous   Login
Location: Drayton Valley
(53.2170°N, 114.9830°W)
Time: 03:21:10
(UTC-06:00)
Language:

MOZ.5/SAFIR/RUBIN 5/SL-8 - Orbit

View from above orbital plane
View from above orbital plane
View from above satellite
View from above satellite

Ground track
Ground track

The orbit data is extracted from the following two-line orbital elements,

1 28898U 05043G   18115.93001759 +.00000104 +00000-0 +30904-4 0  9992
2 28898 097.9696 257.8905 0018442 286.8917 073.0262 14.60266402288840
Epoch (UTC): 25 April 2018 22:19:13
Eccentricity: 0.0018442
inclination: 97.9696°
perigee height: 679 km
apogee height: 705 km
right ascension of ascending node: 257.8905°
argument of perigee: 286.8917°
revolutions per day: 14.60266402
mean anomaly at epoch: 73.0262°
orbit number at epoch: 28884

The dashed part of the orbit path shows where the satellite is in the earth's shadow,  

DLR